Jackson, WY

6:05 PM MDT on October 22, 2017 (GMT -0600)
Jackson Hole

Weather History for KJAC - September, 2013

Change the Weather History Date:

Sunday, September 22, 2013

  Actual Average Record
Temperature  
Mean Temperature 56 °F -  
Max Temperature 68 °F 63 °F 80 °F (1966)
Min Temperature 44 °F 27 °F 11 °F (1983)
Degree Days  
Heating Degree Days 9    
Growing Degree Days 6 (Base 50)    
Moisture  
Dew Point 37 °F    
Average Humidity 58    
Maximum Humidity 87    
Minimum Humidity 21    
Precipitation  
Precipitation 0.00 in - - ()
Sea Level Pressure  
Sea Level Pressure 29.78 in    
Wind  
Wind Speed 6 mph (WNW)    
Max Wind Speed 20 mph    
Max Gust Speed 24 mph    
Visibility 10 miles    
Events      
Averages and records for this station are not official NWS values.
T = Trace of Precipitation, MM = Missing Value Source: NWS Daily Summary

Daily Weather History Graph

Daily Weather History Graph

Search for Another Location

Airport or City:

Trip Planner

Search our weather history database for the weather conditions in past years. The results will help you decide how hot, cold, wet, or windy it might be!

Date:

Astronomy

Sep. 22, 2013 Rise Set
Actual Time 7:10 AM MDT 7:19 PM MDT
Civil Twilight 6:41 AM MDT 7:48 PM MDT
Nautical Twilight 6:08 AM MDT 8:21 PM MDT
Astronomical Twilight 5:33 AM MDT 8:56 PM MDT
Moon 9:04 PM MDT (9/22) 10:41 AM MDT (9/22)
Length of Visible Light 13h 06m
Length of Day
12h 09m
Waning Gibbous, 88% of the Moon is Illuminated
Sep 22
Waning Gibbous
Sep 26
Last Quarter
Oct 4
New
Oct 11
First Quarter
Oct 18
Full

Hourly Weather History & Observations

Time (MDT) Temp. Windchill Dew Point Humidity Pressure Visibility Wind Dir Wind Speed Gust Speed Precip Events Conditions
12:15 AM 50.0 °F - 35.6 °F 58% 29.78 in 10.0 mi WNW 6.9 mph - N/A   Overcast
12:35 AM 51.8 °F - 35.6 °F 54% 29.79 in 10.0 mi NNW 6.9 mph - N/A   Overcast
12:55 AM 51.8 °F - 35.6 °F 54% 29.79 in 10.0 mi Calm Calm - N/A   Overcast
1:15 AM 51.8 °F - 37.4 °F 58% 29.79 in 10.0 mi Calm Calm - N/A   Overcast
1:35 AM 51.8 °F - 37.4 °F 58% 29.79 in 10.0 mi NNW 8.1 mph - N/A   Overcast
1:55 AM 50.0 °F - 37.4 °F 62% 29.78 in 10.0 mi NNW 9.2 mph - N/A   Overcast
2:15 AM 51.8 °F - 37.4 °F 58% 29.78 in 10.0 mi North 6.9 mph - N/A   Overcast
2:35 AM 51.8 °F - 37.4 °F 58% 29.77 in 10.0 mi NNE 4.6 mph - N/A   Overcast
2:55 AM 53.6 °F - 37.4 °F 54% 29.77 in 10.0 mi North 4.6 mph - N/A   Overcast
3:15 AM 51.8 °F - 39.2 °F 62% 29.76 in 10.0 mi NNW 8.1 mph - N/A   Overcast
3:35 AM 50.0 °F - 39.2 °F 66% 29.76 in 10.0 mi North 8.1 mph - N/A   Overcast
3:55 AM 50.0 °F - 39.2 °F 66% 29.76 in 10.0 mi North 8.1 mph - N/A   Overcast
4:15 AM 50.0 °F - 39.2 °F 66% 29.76 in 10.0 mi Calm Calm - N/A   Scattered Clouds
4:35 AM 48.2 °F - 39.2 °F 71% 29.76 in 10.0 mi Calm Calm - N/A   Scattered Clouds
4:55 AM 50.0 °F - 39.2 °F 66% 29.76 in 10.0 mi Calm Calm - N/A   Mostly Cloudy
5:15 AM 50.0 °F - 39.2 °F 66% 29.76 in 10.0 mi ENE 3.5 mph - N/A   Mostly Cloudy
5:35 AM 48.2 °F - 39.2 °F 71% 29.76 in 10.0 mi ENE 4.6 mph - N/A   Mostly Cloudy
5:55 AM 48.2 °F - 39.2 °F 71% 29.77 in 10.0 mi Calm Calm - N/A   Mostly Cloudy
6:15 AM 48.2 °F - 39.2 °F 71% 29.76 in 10.0 mi North 3.5 mph - N/A   Mostly Cloudy
6:35 AM 46.4 °F 44.3 °F 39.2 °F 76% 29.77 in 10.0 mi North 4.6 mph - N/A   Scattered Clouds
6:51 AM 46.4 °F - 41.0 °F 81% 29.76 in 10.0 mi Calm Calm - N/A   Scattered Clouds
7:51 AM 44.6 °F - 41.0 °F 87% 29.77 in 10.0 mi Calm Calm - N/A   Scattered Clouds
8:51 AM - - - N/A% 29.76 in 10.0 mi Calm Calm - N/A   Mostly Cloudy
9:53 AM 53.6 °F - 42.8 °F 67% 29.77 in 10.0 mi Calm Calm - N/A   Mostly Cloudy
10:51 AM 55.4 °F - 39.2 °F 54% 29.79 in 10.0 mi Calm Calm - N/A   Mostly Cloudy
11:52 AM 60.8 °F - 35.6 °F 39% 29.77 in 10.0 mi Calm Calm - N/A   Partly Cloudy
1:55 PM 64.4 °F - 33.8 °F 32% 29.73 in 10.0 mi South 10.4 mph 19.6 mph N/A   Scattered Clouds
2:52 PM 68.0 °F - 26.6 °F 21% 29.71 in 10.0 mi SW 19.6 mph 24.2 mph N/A   Scattered Clouds
3:53 PM 66.2 °F - 32.0 °F 28% 29.72 in 10.0 mi SW 16.1 mph 19.6 mph N/A   Scattered Clouds
4:54 PM 62.6 °F - 33.8 °F 34% 29.72 in 10.0 mi West 15.0 mph - N/A   Scattered Clouds
5:51 PM 62.6 °F - 33.8 °F 34% 29.72 in 10.0 mi SW 12.7 mph 18.4 mph N/A   Scattered Clouds
6:54 PM 57.2 °F - 33.8 °F 41% 29.75 in 10.0 mi WSW 8.1 mph - N/A   Scattered Clouds
7:53 PM 53.6 °F - 37.4 °F 54% 29.78 in 10.0 mi Calm Calm - N/A   Clear
8:55 PM 53.6 °F - 35.6 °F 51% 29.80 in 10.0 mi West 8.1 mph 16.1 mph N/A   Clear
9:15 PM 51.8 °F - 35.6 °F 54% 29.81 in 10.0 mi SW 9.2 mph 17.3 mph N/A   Clear
9:35 PM 51.8 °F - 35.6 °F 54% 29.83 in 10.0 mi West 10.4 mph 18.4 mph N/A   Partly Cloudy
9:55 PM 50.0 °F - 35.6 °F 58% 29.83 in 10.0 mi SSW 9.2 mph - N/A   Clear
10:15 PM 48.2 °F - 35.6 °F 62% 29.83 in 10.0 mi West 15.0 mph 19.6 mph N/A   Clear
10:55 PM 44.6 °F 40.7 °F 35.6 °F 71% 29.86 in 10.0 mi SW 6.9 mph - N/A   Clear
11:35 PM 44.6 °F 41.4 °F 33.8 °F 66% 29.87 in 10.0 mi SSW 5.8 mph - N/A   Scattered Clouds
11:55 PM 44.6 °F 40.2 °F 33.8 °F 66% 29.88 in 10.0 mi SSW 8.1 mph - N/A   Partly Cloudy